Other Public Products
Issued by NWS Grand Forks, ND

Home | Current Version | Previous Version | Graphics & Text | Print | Product List | Glossary On
Versions: 1 2 3 4 5 6 7 8 9 10 11 12 13 14 15 16 17 18 19 20 21 22 23 24 25 26 27 28 29 30 31 32 33 34 35 36 37 38 39 40 41 42 43 44 45 46 47 48 49 50
000
FPUS83 KFGF 201310
OPUFGF
PRAIRIE TO PINES WEATHER ROUNDUP
NATIONAL WEATHER SERVICE EASTERN NORTH DAKOTA/GRAND FORKS ND
800 AM CDT THU JUL 20 2017

 **SATELLITE DATA USED TO AUGMENT SKY COVER AT AUTOMATED STATIONS**
 *****  WEATHER ACROSS EASTERN NORTH DAKOTA  *****

CITY           SKY/WX    TMP DP  RH WIND       PRES   REMARKS
GRAND FORKS    FAIR      63  60  90 N7        30.00R
GRAND FORKS AF FAIR      63  59  89 N7        30.02R
GRAND CITY NWS NOT AVBL
BUXTON         NOT AVBL
DEVILS LAKE    FAIR      62  59  90 N7        30.04S
FARGO          FAIR      67  64  90 NE7       30.00R
WAHPETON ARPT  CLOUDY    63  61  94 CALM      30.01R VSB<1/4
$$

 *****  WEATHER ACROSS CENTRAL AND WESTERN NORTH DAKOTA  *****

CITY           SKY/WX    TMP DP  RH WIND       PRES   REMARKS
JAMESTOWN      FAIR      69  65  86 E3        30.01R
BISMARCK       FAIR      66  62  87 CALM      30.04R
MINOT          FAIR      66  59  78 E5        30.01S
MINOT AFB      FAIR      62  58  88 E7        30.00S
GARRISON         N/A     66  63  90 E7        30.01S
WILLISTON        N/A    N/A N/A N/A MISG      29.97R
DICKINSON      FAIR      71  62  73 S9        29.99S
HETTINGER      FAIR      68  62  81 S7        30.06S
$$

 *****  OTHER OBSERVATIONS NORTHEAST NORTH DAKOTA  *****

CITY           SKY/WX    TMP DP  RH WIND       PRES   REMARKS
WALHALLA       NOT AVBL
LANGDON        FAIR      57  57 100 CALM      30.05R
CAVALIER       FAIR      61  57  88 CALM      30.02R
GRAFTON        FAIR      61  61 100 N6        30.03S
CANDO          NOT AVBL
FORT TOTTEN    NOT AVBL
ROLLA            N/A     59  57  94 N3        30.05S
RUGBY          NOT AVBL
 ***** THE ABOVE OBSERVATIONS ARE NON NWS ARE NOT QUALITY
        CONTROLLED AND MAY MIS-REPORT RAIN FOR SNOW...
$$

 *****  OTHER OBSERVATIONS SOUTHEAST NORTH DAKOTA *****

CITY           SKY/WX    TMP DP  RH WIND       PRES   REMARKS
COOPERSTOWN    FAIR      63  63 100 N3        30.05R
VALLEY CITY    FAIR      66  66 100 E5        30.03R
OAKES          NOT AVBL
GWINNER        SUNNY     68  66  94 CALM      30.01S
BUFFALO        NOT AVBL
WYNDMERE       NOT AVBL
 ***** THE ABOVE OBSERVATIONS ARE NON NWS ARE NOT QUALITY
       CONTROLLED AND MAY MIS-REPORT RAIN FOR SNOW...
$$

  *****  WEATHER ACROSS NORTHERN MINNESOTA  *****

CITY           SKY/WX    TMP DP  RH WIND       PRES   REMARKS
FLAG ISLAND    FAIR      63  57  82 W5        29.99R
WARROAD        FAIR      63  57  82 NW6       30.01S
ROSEAU         FAIR      63  57  82 CALM      30.01S
HALLOCK        FAIR      61  57  88 N3        30.01S
THF RVR FALLS  FAIR      65  60  84 N3        30.03R
HALSTAD        NOT AVBL
FOSSTON        FAIR      63  61  94 N5        30.03R FOG
BAUDETTE       FAIR      65  63  93 NW8       29.99R
WASKISH        PTSUNNY   64  63  94 NW5       30.01R
CROOKSTON      FAIR      61  61 100 CALM      30.01S
$$
  *****  WEATHER ACROSS CENTRAL AND WEST MINNESOTA  *****

CITY           SKY/WX    TMP DP  RH WIND       PRES   REMARKS
BEMIDJI        FAIR      65  63  94 NW7       30.01S
PARK RAPIDS    FAIR      66  65  96 W3        30.02R
WADENA         CLOUDY    63  63 100 CALM      30.01S VSB 1/4
DETROIT LAKES  FOG       64  63  94 CALM      30.03S VSB 1/4
MOORHEAD       FOG       63  63 100 CALM      30.01S VSB 1/2
FERGUS FALLS   FOG       66  66 100 CALM      30.01R VSB<1/4
ELBOW LAKE     FOG       64  64 100 CALM      30.02R VSB 1/4
MORRIS MN      FAIR      66  64  94 CALM      30.00S FOG
STAPLES        FOG       63  63 100 NW3       30.02R VSB<1/4
WHEATON        FAIR      70  66  88 W3        30.02R FOG
$$
  *****  WEATHER ELSEWHERE ACROSS MINNESOTA  *****

CITY           SKY/WX    TMP DP  RH WIND       PRES   REMARKS
DULUTH         CLOUDY    66  65  96 NW7       29.98R
INTRNTL FALLS  FAIR      64  62  93 W5        29.97R
ELY            FAIR      66  63  88 W6        29.97R
CLOQUET        FAIR      66  63  88 NW8       29.98S
BRAINERD       FAIR      67  64  90 NW5       30.01S
HIBBING        FAIR      66  65  96 NW7       29.98R
ALEXANDRIA     FAIR      67  65  93 NW5       30.04R
SAINT CLOUD    FAIR      66  65  96 CALM      30.00S FOG
MINNEAPOLIS    PTSUNNY   72  68  87 CALM      30.00S FOG
$$

  *****  WEATHER ACROSS SOUTH DAKOTA  *****

CITY           SKY/WX    TMP DP  RH WIND       PRES   REMARKS
SIOUX FALLS    CLOUDY    72  70  93 NE6       30.00S
BROOKINGS      NOT AVBL
WATERTOWN      FAIR      64  64 100 CALM      30.03R
HURON          FAIR      72  70  93 CALM      30.02R
SISSETON         N/A     68  66  93 W3        30.00S
ABERDEEN       FOG       66  66 100 CALM      30.02S VSB 1/4
MITCHELL       FAIR      74  71  91 N6        30.00S
PIERRE         FAIR      73  68  84 E5        30.00F
MOBRIDGE       FOG       69  68  96 S3        30.01R VSB<1/4
RAPID CITY     FAIR      70  65  84 E3        30.09R
$$

  *****  SOME WEATHER IN NEARBY STATES *****

CITY           SKY/WX    TMP DP  RH WIND       PRES   REMARKS
GLASGOW MT     NOT AVBL
GREAT FALLS MT FAIR      59  36  42 SW7       29.96S
CHEYENNE WY    FAIR      66  54  65 CALM      30.29R
SCOTTSBLUFF NE CLOUDY    69  64  84 CALM      30.16R
OMAHA NE       PTSUNNY   84  70  62 S7        29.96R
DES MOINES IA  FAIR      83  71  67 W10       29.95R
DAVENPORT IA   FAIR      74  71  91 E13       30.04S
CHICAGO IL     TSTM      69  67  93 E17       30.02F FOG
EAU CLAIRE WI  CLOUDY    69  68  96 W5        30.00R FOG
LA CROSSE WI   FAIR      73  69  87 S7        29.98R
$$

  *****  SOME NATIONAL WEATHER *****

CITY           SKY/WX    TMP DP  RH WIND       PRES   REMARKS
LA GUARDIA NY  PTSUNNY   83  71  67 NE5       29.97S
RALEIGH NC     FAIR      82  73  74 W3        30.08S
ATLANTA GA     FAIR      80  71  74 NW8       30.13R
NEW ORLEANS LA FAIR      84  77  79 N3        30.12R HX  94
OKLAHOMA CITY  FAIR      79  69  71 S13       30.10S
ALBUQUERQUE NM FAIR      70  50  49 SE8       30.30R
SALT LAKE CITY MOCLDY    78  58  49 SE18      30.06S
LOS ANGELES CA MOCLDY    69  65  86 E3        29.99R FOG
BOISE ID       FAIR      64  39  39 CALM      30.00R
SEATTLE WA     MOCLDY    60  53  77 S8        30.09R
$$

*** WEATHER ACROSS MANITOBA...SASKATCHEWAN AND ONTARIO ***
                ***ONTARIO***

CITY           SKY/WX    TMP DP  RH WIND       PRES   REMARKS
GERALDTON      PTSUNNY   64  57  77 W9        29.83R
THUNDER BAY    SUNNY     66  59  77 SW8       29.88R
SIOUX LOOKOUT  MOSUNNY   63  55  77 N5        29.94R
TORONTO        PTSUNNY   70  57  64 SE5       29.97F
BIG TROUT LK   MOSUNNY   57  50  77 NW18      29.75R
PICKLE LAKE    MOSUNNY   57  54  88 NW6       29.87R
DRYDEN         MOSUNNY   63  57  82 NW6       29.96R
KENORA         MOSUNNY   61  54  77 N7        30.00R
$$
                *** MANITOBA***

CITY           SKY/WX    TMP DP  RH WIND       PRES   REMARKS
BRANDON        PTSUNNY   52  50  93 NW3       30.03S
DAUPHIN        SUNNY     59  52  77 SW7       29.99R
ISLAND LAKE    MOSUNNY   59  52  77 N6        29.85R
PILOT MOUND      N/A     59  55  88 N2          N/A
THE PAS        PTSUNNY   61  55  82 NW7       29.90R
THOMPSON       MOSUNNY   50  46  87 W6        29.89R
WINNIPEG       MOSUNNY   57  57 100 W2        30.01R
LYNN LAKE      SUNNY     52  41  66 NW9       29.94R
CHURCHILL      PTSUNNY   46  41  81 NW21G30   29.70R
GILLAM         MOSUNNY   52  41  66 NW18G29   29.78R
$$
                ***SASKATCHEWAN***

CITY           SKY/WX    TMP DP  RH WIND       PRES   REMARKS
ESTEVAN        SUNNY     59  52  77 E3        30.01S
KINDERSLEY     MOSUNNY   54  50  87 SE2       29.94R
LLOYDMINSTER   MOSUNNY   55  55 100 S2        29.94S SMOKE
PRINCE ALBERT  PTSUNNY   55  55 100 CALM      29.95S
REGINA         MOSUNNY   57  50  77 SE8       29.99F
YORKTON        SUNNY     57  52  82 VRB2      30.00S
N. BATTLEFORD  SUNNY     52  52 100 VRB2      29.96S FO


USA.gov is the U.S. government's official web portal to all federal, state and local government web resources and services.